Boulder City, NV

6:54 PM PST on December 07, 2019 (GMT -0800)
Boulder City

Weather History for KBVU - November, 2019

Change the Weather History Date:

Tuesday, November 12, 2019

  Actual Average (KLAS) Record (KLAS)
Temperature  
Mean Temperature 63 °F -  
Max Temperature 73 °F 68 °F 81 °F (1973)
Min Temperature 53 °F 44 °F 24 °F (1950)
Degree Days  
Heating Degree Days 2    
Growing Degree Days 13 (Base 50)    
Moisture  
Dew Point 20 °F    
Average Humidity 20    
Maximum Humidity 38    
Minimum Humidity 13    
Precipitation  
Precipitation 0.00 in - - ()
Sea Level Pressure  
Sea Level Pressure 30.14 in    
Wind  
Wind Speed 5 mph ()    
Max Wind Speed 15 mph    
Max Gust Speed 17 mph    
Visibility 10.0 miles    
Events      
Averages and records for this station are not official NWS values.
T = Trace of Precipitation, MM = Missing Value Source: Averaged Metar Reports

Daily Weather History Graph

Daily Weather History Graph

Search for Another Location

Airport or City:

Astronomy

Nov. 12, 2019 Rise Set
Actual Time 6:12 AM PST 4:34 PM PST
Civil Twilight 5:45 AM PST 5:01 PM PST
Nautical Twilight 5:14 AM PST 5:31 PM PST
Astronomical Twilight 4:44 AM PST 6:02 PM PST
Moon 5:02 PM PST (11/12) 6:09 AM PST (11/12)
Length of Visible Light 11h 15m
Length of Day
10h 21m
Full, 100% of the Moon is Illuminated
Nov 12
Full
Nov 19
Last Quarter
Nov 26
New
Dec 3
First Quarter
Dec 11
Full

Hourly Weather History & Observations

Time (PST) Temp. Dew Point Humidity Pressure Visibility Wind Dir Wind Speed Gust Speed Precip Events Conditions
12:15 AM 55.4 °F 21.2 °F 26% 30.18 in 10.0 mi Calm Calm - N/A   Clear
12:35 AM 57.2 °F 17.6 °F 21% 30.18 in 10.0 mi Calm Calm - N/A   Clear
12:55 AM 55.4 °F 21.2 °F 26% 30.18 in 10.0 mi Calm Calm - N/A   Clear
1:15 AM 57.2 °F 15.8 °F 20% 30.18 in 10.0 mi Calm Calm - N/A   Clear
1:35 AM 55.4 °F 19.4 °F 25% 30.18 in 10.0 mi Calm Calm - N/A   Clear
1:55 AM 53.6 °F 19.4 °F 26% 30.18 in 10.0 mi North 8.1 mph - N/A   Clear
2:35 AM 59.0 °F 17.6 °F 20% 30.18 in 10.0 mi North 12.7 mph - N/A   Clear
2:55 AM 60.8 °F 17.6 °F 19% 30.17 in 10.0 mi NNE 10.4 mph - N/A   Clear
3:15 AM 62.6 °F 15.8 °F 16% 30.17 in 10.0 mi NE 11.5 mph 17.3 mph N/A   Clear
3:35 AM 62.6 °F 15.8 °F 16% 30.18 in 10.0 mi NNE 8.1 mph - N/A   Clear
3:55 AM 59.0 °F 17.6 °F 20% 30.17 in 10.0 mi North 10.4 mph - N/A   Clear
4:35 AM 59.0 °F 17.6 °F 20% 30.17 in 10.0 mi North 15.0 mph - N/A   Clear
4:55 AM 59.0 °F 17.6 °F 20% 30.18 in 10.0 mi North 5.8 mph 13.8 mph N/A   Clear
5:15 AM 53.6 °F 17.6 °F 24% 30.18 in 10.0 mi NW 8.1 mph - N/A   Clear
5:35 AM 55.4 °F 17.6 °F 23% 30.19 in 10.0 mi NW 8.1 mph - N/A   Clear
5:55 AM 57.2 °F 17.6 °F 21% 30.19 in 10.0 mi North 6.9 mph - N/A   Clear
6:15 AM 53.6 °F 17.6 °F 24% 30.20 in 10.0 mi NW 6.9 mph - N/A   Clear
6:55 AM 59.0 °F 19.4 °F 22% 30.20 in 10.0 mi NNW 11.5 mph - N/A   Clear
7:15 AM 60.8 °F 19.4 °F 20% 30.21 in 10.0 mi NNW 13.8 mph - N/A   Clear
7:35 AM 60.8 °F 19.4 °F 20% 30.22 in 10.0 mi NNW 9.2 mph 15.0 mph N/A   Clear
7:55 AM 60.8 °F 17.6 °F 19% 30.22 in 10.0 mi NNW 10.4 mph - N/A   Clear
8:15 AM 62.6 °F 17.6 °F 18% 30.22 in 10.0 mi NNW 11.5 mph - N/A   Clear
8:35 AM 62.6 °F 19.4 °F 19% 30.23 in 10.0 mi NNW 9.2 mph - N/A   Clear
8:55 AM 64.4 °F 19.4 °F 18% 30.22 in 10.0 mi NNW 8.1 mph - N/A   Clear
9:35 AM 66.2 °F 19.4 °F 17% 30.22 in 10.0 mi NW 8.1 mph - N/A   Clear
9:55 AM 66.2 °F 19.4 °F 17% 30.21 in 10.0 mi NW 9.2 mph - N/A   Clear
10:15 AM 68.0 °F 19.4 °F 16% 30.20 in 10.0 mi Variable 4.6 mph 12.7 mph N/A   Clear
10:35 AM 68.0 °F 19.4 °F 16% 30.20 in 10.0 mi Variable 5.8 mph 15.0 mph N/A   Clear
10:55 AM 69.8 °F 19.4 °F 15% 30.19 in 10.0 mi Variable 6.9 mph - N/A   Clear
11:15 AM 69.8 °F 19.4 °F 15% 30.18 in 10.0 mi Variable 3.5 mph 11.5 mph N/A   Clear
11:35 AM 69.8 °F 21.2 °F 16% 30.16 in 10.0 mi NE 5.8 mph - N/A   Clear
11:55 AM 69.8 °F 21.2 °F 16% 30.16 in 10.0 mi Calm Calm - N/A   Clear
12:15 PM 71.6 °F 19.4 °F 14% 30.14 in 10.0 mi Calm Calm - N/A   Clear
12:35 PM 71.6 °F 21.2 °F 15% 30.13 in 10.0 mi ENE 5.8 mph - N/A   Clear
12:55 PM 73.4 °F 21.2 °F 14% 30.12 in 10.0 mi NNE 8.1 mph - N/A   Clear
1:15 PM 71.6 °F 19.4 °F 14% 30.11 in 10.0 mi NE 5.8 mph - N/A   Clear
1:35 PM 71.6 °F 19.4 °F 14% 30.11 in 10.0 mi Calm Calm - N/A   Clear
1:55 PM 73.4 °F 19.4 °F 13% 30.10 in 10.0 mi NE 5.8 mph - N/A   Clear
2:15 PM 73.4 °F 21.2 °F 14% 30.09 in 10.0 mi NNE 5.8 mph - N/A   Clear
2:35 PM 73.4 °F 19.4 °F 13% 30.09 in 10.0 mi Calm Calm - N/A   Clear
2:55 PM 73.4 °F 19.4 °F 13% 30.08 in 10.0 mi ENE 4.6 mph - N/A   Clear
3:15 PM 73.4 °F 19.4 °F 13% 30.08 in 10.0 mi NE 4.6 mph - N/A   Clear
3:35 PM 73.4 °F 19.4 °F 13% 30.08 in 10.0 mi NE 5.8 mph - N/A   Clear
3:55 PM 71.6 °F 19.4 °F 14% 30.08 in 10.0 mi NE 5.8 mph - N/A   Clear
4:15 PM 71.6 °F 21.2 °F 15% 30.08 in 10.0 mi NE 5.8 mph - N/A   Clear
4:35 PM 68.0 °F 21.2 °F 17% 30.07 in 10.0 mi NE 5.8 mph - N/A   Clear
4:55 PM 66.2 °F 23.0 °F 19% 30.07 in 10.0 mi NNE 5.8 mph - N/A   Clear
5:15 PM 64.4 °F 21.2 °F 19% 30.07 in 10.0 mi NNE 5.8 mph - N/A   Clear
5:35 PM 62.6 °F 21.2 °F 20% 30.07 in 10.0 mi North 6.9 mph - N/A   Clear
5:55 PM 62.6 °F 19.4 °F 19% 30.07 in 10.0 mi North 8.1 mph - N/A   Clear
6:15 PM 62.6 °F 21.2 °F 20% 30.07 in 10.0 mi North 8.1 mph - N/A   Clear
6:35 PM 62.6 °F 21.2 °F 20% 30.07 in 10.0 mi North 8.1 mph - N/A   Clear
6:55 PM 60.8 °F 21.2 °F 22% 30.07 in 10.0 mi NNW 4.6 mph - N/A   Clear
7:15 PM 60.8 °F 19.4 °F 20% 30.08 in 10.0 mi NW 5.8 mph - N/A   Clear
7:35 PM 59.0 °F 19.4 °F 22% 30.08 in 10.0 mi NW 6.9 mph - N/A   Clear
7:55 PM 59.0 °F 19.4 °F 22% 30.08 in 10.0 mi Calm Calm - N/A   Clear
8:15 PM 57.2 °F 23.0 °F 27% 30.08 in 10.0 mi Calm Calm - N/A   Clear
8:35 PM 57.2 °F 26.6 °F 31% 30.09 in 10.0 mi Calm Calm - N/A   Clear
9:15 PM 57.2 °F 24.8 °F 29% 30.08 in 10.0 mi Calm Calm - N/A   Clear
9:35 PM 53.6 °F 28.4 °F 38% 30.08 in 10.0 mi Calm Calm - N/A   Clear
9:55 PM 55.4 °F 24.8 °F 31% 30.08 in 10.0 mi Calm Calm - N/A   Clear
10:35 PM 53.6 °F 24.8 °F 33% 30.07 in 10.0 mi Calm Calm - N/A   Clear
10:55 PM 55.4 °F 23.0 °F 29% 30.07 in 10.0 mi Calm Calm - N/A   Clear
11:15 PM 55.4 °F 24.8 °F 31% 30.07 in 10.0 mi Calm Calm - N/A   Clear
11:55 PM 53.6 °F 26.6 °F 35% 30.07 in 10.0 mi Calm Calm - N/A   Clear